| time (UTC) | temp F | wind direction | speed knots | gust knots | rain 1hr in | rain 24hr in | rain mn in | humidity % | barometer mb |
| 20260831030044 | 60 | 236 | 6.1 | 13.0 | 0.00 | 0.02 | 0.02 | 48 | 1007.6 |
| 20260831024544 | 60 | 270 | 4.3 | 11.3 | 0.00 | 0.02 | 0.02 | 47 | 1007.4 |
| 20260831023042 | 60 | 330 | 7.0 | 16.5 | 0.00 | 0.02 | 0.02 | 46 | 1007.2 |
| 20260831021542 | 61 | 269 | 5.2 | 16.5 | 0.00 | 0.02 | 0.02 | 46 | 1007.0 |
| 20260831020047 | 60 | 239 | 6.1 | 13.9 | 0.00 | 0.02 | 0.02 | 48 | 1007.1 |
| 20260831014542 | 60 | 261 | 4.3 | 9.6 | 0.00 | 0.02 | 0.02 | 51 | 1006.8 |
| 20260831013046 | 61 | 266 | 5.2 | 11.3 | 0.00 | 0.02 | 0.02 | 49 | 1006.8 |
| 20260831011545 | 61 | 261 | 4.3 | 11.3 | 0.00 | 0.02 | 0.02 | 51 | 1007.0 |
| 20260831010043 | 62 | 323 | 7.0 | 14.8 | 0.00 | 0.02 | 0.02 | 49 | 1007.0 |
| 20260831004540 | 62 | 273 | 8.7 | 19.1 | 0.00 | 0.02 | 0.02 | 47 | 1007.1 |
| 20260831003041 | 63 | 263 | 8.7 | 15.6 | 0.00 | 0.02 | 0.02 | 45 | 1007.0 |
| 20260831001538 | 64 | 284 | 10.4 | 19.1 | 0.00 | 0.02 | 0.02 | 41 | 1006.8 |
| 20260831000038 | 64 | 288 | 8.7 | 20.0 | 0.00 | 0.02 | 0.02 | 39 | 1006.5 |
| 20260830234542 | 67 | 273 | 7.8 | 18.2 | 0.00 | 0.02 | 0.02 | 37 | 1006.4 |
| 20260830233037 | 67 | 241 | 8.7 | 19.1 | 0.00 | 0.02 | 0.02 | 37 | 1006.2 |
| 20260830231537 | 65 | 261 | 6.1 | 12.2 | 0.00 | 0.02 | 0.02 | 41 | 1006.3 |
| 20260830230036 | 63 | 242 | 7.8 | 14.8 | 0.00 | 0.02 | 0.02 | 42 | 1006.6 |
| 20260830224536 | 63 | 256 | 9.6 | 18.2 | 0.00 | 0.02 | 0.02 | 42 | 1006.7 |
| 20260830223036 | 64 | 201 | 8.7 | 15.6 | 0.00 | 0.02 | 0.02 | 41 | 1006.8 |
| 20260830221544 | 64 | 217 | 7.8 | 15.6 | 0.00 | 0.02 | 0.02 | 42 | 1006.8 |
| 20260830220035 | 64 | 294 | 7.0 | 16.5 | 0.00 | 0.02 | 0.02 | 42 | 1006.9 |
| 20260830214534 | 66 | 256 | 8.7 | 20.0 | 0.00 | 0.02 | 0.02 | 39 | 1006.8 |
| 20260830213033 | 66 | 261 | 8.7 | 20.9 | 0.00 | 0.02 | 0.02 | 38 | 1006.7 |
| 20260830211533 | 68 | 246 | 6.1 | 15.6 | 0.00 | 0.02 | 0.02 | 36 | 1006.7 |
| 20260830210035 | 68 | 246 | 9.6 | 19.1 | 0.00 | 0.02 | 0.02 | 36 | 1006.6 |
| 20260830204532 | 65 | 229 | 8.7 | 20.0 | 0.00 | 0.02 | 0.02 | 40 | 1006.7 |
| 20260830203031 | 64 | 302 | 8.7 | 15.6 | 0.00 | 0.02 | 0.02 | 39 | 1006.5 |
| 20260830201531 | 65 | 263 | 7.0 | 17.4 | 0.00 | 0.02 | 0.02 | 37 | 1006.5 |
| 20260830200042 | 65 | 223 | 6.1 | 19.1 | 0.00 | 0.02 | 0.02 | 39 | 1006.5 |
| 20260830194532 | 66 | 304 | 7.0 | 13.9 | 0.00 | 0.02 | 0.02 | 36 | 1006.4 |
| 20260830193030 | 67 | 247 | 5.2 | 13.9 | 0.00 | 0.02 | 0.02 | 35 | 1006.4 |
| 20260830191529 | 68 | 330 | 4.3 | 11.3 | 0.00 | 0.02 | 0.02 | 33 | 1006.4 |
| 20260830190042 | 69 | 244 | 5.2 | 13.0 | 0.00 | 0.02 | 0.02 | 33 | 1006.3 |
| 20260830184526 | 67 | 237 | 7.8 | 15.6 | 0.00 | 0.02 | 0.02 | 35 | 1006.6 |
| 20260830183023 | 67 | 224 | 6.1 | 16.5 | 0.00 | 0.02 | 0.02 | 38 | 1006.5 |
| 20260830181521 | 66 | 232 | 8.7 | 16.5 | 0.00 | 0.02 | 0.02 | 40 | 1006.6 |
| 20260830180021 | 65 | 248 | 5.2 | 12.2 | 0.00 | 0.02 | 0.02 | 44 | 1006.8 |
| 20260830174518 | 64 | 221 | 8.7 | 14.8 | 0.00 | 0.02 | 0.02 | 50 | 1006.9 |
| 20260830173017 | 63 | 215 | 4.3 | 11.3 | 0.00 | 0.02 | 0.02 | 51 | 1006.8 |
| 20260830171512 | 62 | 265 | 2.6 | 7.0 | 0.00 | 0.02 | 0.02 | 46 | 1007.0 |
| 20260830170010 | 62 | 262 | 2.6 | 8.7 | 0.00 | 0.02 | 0.02 | 46 | 1007.0 |
| 20260830164508 | 61 | 261 | 3.5 | 7.0 | 0.00 | 0.02 | 0.02 | 46 | 1007.0 |
| 20260830163007 | 61 | 241 | 3.5 | 7.8 | 0.00 | 0.02 | 0.02 | 47 | 1006.9 |
| 20260830161503 | 60 | 275 | 1.7 | 7.0 | 0.00 | 0.02 | 0.02 | 51 | 1006.9 |
| 20260830160001 | 59 | 240 | 1.7 | 4.3 | 0.00 | 0.02 | 0.02 | 53 | 1006.8 |
| 20260830154501 | 59 | 260 | 0.9 | 4.3 | 0.00 | 0.02 | 0.02 | 53 | 1006.8 |
| 20260830153058 | 59 | 292 | 0.9 | 4.3 | 0.00 | 0.02 | 0.02 | 56 | 1006.8 |
| 20260830151556 | 58 | 290 | 0.0 | 0.0 | 0.00 | 0.02 | 0.02 | 65 | 1007.0 |
| 20260830150104 | 58 | 238 | 0.0 | 2.6 | 0.00 | 0.02 | 0.02 | 74 | 1007.2 |
| 20260830144555 | 57 | 221 | 0.0 | 4.3 | 0.00 | 0.02 | 0.02 | 69 | 1007.3 |
| 20260830143105 | 57 | 173 | 0.9 | 3.5 | 0.00 | 0.02 | 0.02 | 65 | 1007.2 |
| 20260830141554 | 56 | 160 | 0.9 | 3.5 | 0.00 | 0.02 | 0.02 | 64 | 1007.4 |
| 20260830140053 | 56 | 187 | 0.9 | 5.2 | 0.00 | 0.02 | 0.02 | 67 | 1007.5 |
| 20260830134552 | 56 | 115 | 0.0 | 0.0 | 0.00 | 0.02 | 0.02 | 69 | 1007.8 |
| 20260830133054 | 56 | 113 | 0.0 | 0.0 | 0.00 | 0.02 | 0.02 | 71 | 1007.8 |
| 20260830131549 | 56 | 113 | 0.0 | 3.5 | 0.00 | 0.02 | 0.02 | 74 | 1007.7 |
| 20260830130048 | 56 | 121 | 1.7 | 5.2 | 0.00 | 0.02 | 0.02 | 74 | 1007.5 |
| 20260830124546 | 56 | 98 | 5.2 | 7.8 | 0.00 | 0.02 | 0.02 | 75 | 1007.3 |
| 20260830123044 | 56 | 107 | 5.2 | 8.7 | 0.00 | 0.02 | 0.02 | 74 | 1007.1 |
| 20260830121541 | 57 | 49 | 0.9 | 2.6 | 0.00 | 0.02 | 0.02 | 74 | 1007.1 |
| 20260830120040 | 57 | 262 | 1.7 | 7.0 | 0.00 | 0.02 | 0.02 | 73 | 1006.9 |
| 20260830114540 | 57 | 240 | 2.6 | 7.0 | 0.00 | 0.02 | 0.02 | 73 | 1006.7 |
| 20260830113039 | 57 | 241 | 1.7 | 4.3 | 0.00 | 0.02 | 0.02 | 74 | 1006.3 |
| 20260830111537 | 57 | 276 | 1.7 | 4.3 | 0.00 | 0.02 | 0.02 | 74 | 1006.0 |
| 20260830110037 | 57 | 259 | 0.0 | 4.3 | 0.00 | 0.02 | 0.02 | 74 | 1006.0 |
| 20260830104556 | 57 | 261 | 0.0 | 2.6 | 0.00 | 0.02 | 0.02 | 74 | 1005.6 |
| 20260830103034 | 56 | 269 | 2.6 | 5.2 | 0.00 | 0.02 | 0.02 | 75 | 1005.8 |
| 20260830101534 | 56 | 274 | 2.6 | 5.2 | 0.00 | 0.02 | 0.02 | 75 | 1005.8 |
| 20260830100033 | 56 | 254 | 0.9 | 7.0 | 0.00 | 0.02 | 0.02 | 75 | 1005.9 |
| 20260830094533 | 56 | 275 | 3.5 | 7.8 | 0.00 | 0.02 | 0.02 | 75 | 1006.0 |
| 20260830093038 | 57 | 279 | 2.6 | 8.7 | 0.00 | 0.02 | 0.02 | 74 | 1005.9 |
| 20260830091528 | 57 | 263 | 5.2 | 13.9 | 0.00 | 0.02 | 0.02 | 73 | 1005.9 |
| 20260830090027 | 57 | 261 | 6.1 | 13.9 | 0.01 | 0.02 | 0.02 | 74 | 1006.1 |
| 20260830084526 | 57 | 258 | 5.2 | 12.2 | 0.02 | 0.02 | 0.02 | 73 | 1006.1 |
| 20260830083035 | 57 | 251 | 5.2 | 13.9 | 0.02 | 0.02 | 0.02 | 68 | 1006.3 |
| 20260830081521 | 57 | 259 | 7.0 | 13.9 | 0.02 | 0.02 | 0.02 | 69 | 1006.5 |
| 20260830080019 | 58 | 236 | 7.0 | 18.2 | 0.01 | 0.01 | 0.01 | 70 | 1006.5 |
| 20260830074515 | 59 | 267 | 6.1 | 13.0 | 0.00 | 0.00 | 0.00 | 73 | 1006.2 |
| 20260830073013 | 59 | 246 | 5.2 | 13.0 | 0.00 | 0.00 | 0.00 | 74 | 1005.7 |
| 20260830071518 | 59 | 234 | 7.0 | 12.2 | 0.00 | 0.00 | 0.00 | 74 | 1005.1 |
| 20260830070010 | 59 | 216 | 6.1 | 9.6 | 0.00 | 0.00 | 0.00 | 74 | 1005.1 |
| 20260830064509 | 58 | 221 | 5.2 | 8.7 | 0.00 | 0.00 | 0.00 | 74 | 1005.2 |
| 20260830063003 | 58 | 210 | 3.5 | 5.2 | 0.00 | 0.00 | 0.00 | 74 | 1005.2 |
| 20260830061502 | 58 | 215 | 0.9 | 2.6 | 0.00 | 0.00 | 0.00 | 74 | 1005.4 |
| 20260830060100 | 58 | 219 | 0.9 | 3.5 | 0.00 | 0.00 | 0.00 | 74 | 1005.1 |
| 20260830054600 | 58 | 256 | 0.9 | 2.6 | 0.00 | 0.00 | 0.00 | 74 | 1005.1 |
| 20260830053101 | 58 | 231 | 0.9 | 3.5 | 0.00 | 0.00 | 0.00 | 74 | 1005.2 |
| 20260830051558 | 58 | 250 | 0.0 | 2.6 | 0.00 | 0.00 | 0.00 | 74 | 1005.6 |
| 20260830050058 | 58 | 317 | 0.9 | 5.2 | 0.00 | 0.00 | 0.00 | 74 | 1005.9 |
| 20260830044558 | 59 | 336 | 0.9 | 5.2 | 0.00 | 0.00 | 0.00 | 74 | 1005.9 |
| 20260830043057 | 59 | 296 | 0.0 | 0.0 | 0.00 | 0.00 | 0.00 | 74 | 1005.6 |
| 20260830041604 | 59 | 296 | 0.0 | 0.9 | 0.00 | 0.00 | 0.00 | 74 | 1005.7 |
| 20260830040059 | 60 | 296 | 0.9 | 2.6 | 0.00 | 0.00 | 0.00 | 74 | 1005.6 |
| 20260830034606 | 60 | 313 | 1.7 | 7.0 | 0.00 | 0.00 | 0.00 | 73 | 1005.4 |
| 20260830033057 | 60 | 34 | 1.7 | 4.3 | 0.00 | 0.00 | 0.00 | 73 | 1004.9 |
| 20260830031554 | 60 | 85 | 2.6 | 7.8 | 0.00 | 0.00 | 0.00 | 73 | 1004.8 |